COSMOS 2251 DEB, 34924

Orbit data source: Space-Track

COSMOS 2251 DEB, 34924 is space debris in LEO originally from a launch on Wed, 16 Jun 1993 UTC launched from the Plesetsk Missile And Space Complex (PKMTR). The debris from Iridium 33, an American commercial communications satellite, has been tracked extensively since its accidental collision with the defunct Russian satellite Cosmos 2251 in 2009. This event, occurring at high speed in low Earth orbit (LEO), generated thousands of pieces of space debris, significantly increasing the risk of further collisions. The Iridium 33 debris cloud has impacted space traffic management and orbital debris mitigation strategies, making it a subject of ongoing study in space situational awareness.

Loading next visibility...
Identifier
34924, 1993-036ADV
Orbit
LEO
Country
Flag of CISCIS
Related business
Manufacturer
Unknown
Mission
Spacecraft
Bus & Motor
Unknown
Mass
Unknown
Launch date (UTC)
1993-06-16 (33 years ago)
Launch vehicle
Unknown
Launch site
Plesetsk Missile And Space Complex (PKMTR)
Object type
Payload
Rocket body
Debris
Shape & HBR
Unknown shape, 0.1 m
Radar Cross Section
Small (<0.1 m²)

Expand to show TLE details & history
Last TLE update: 14 hours ago

TLE from 14 hours ago
0 COSMOS 2251 DEB
1 34924U 93036ADV 26238.29753512  .00002056  00000-0  40918-3 0  9996
2 34924  74.0401 319.1451 0055499 336.4540  80.7634 14.61790028914708
Epoch: 2026-08-26T07:08Z
TLE epoch observation values (Epoch: 2026-08-26T07:08:27.034Z)
Latitude
54.5972°
Longitude
-98.9284°
Altitude
689.986 km
Speed
7.52 km/s
True Right ascension
22h 50m 56s
True Declination
54° 25' 59"
Sunlit
Object was in daylight at epoch
Visualization orbit readout
Latitude
Unknown
Longitude
Unknown
Altitude
Unknown
Speed
Unknown
Apparent Right ascension
Unknown
Apparent Declination
Unknown
Sunlit
N/A
Visualization observer readout
Local Sidereal Time
12:25:59
Azimuth
Unknown
Elevation
Unknown
Doppler factor
Unknown
Orbital elements
Apogee altitude
724.195 km
Perigee altitude
645.795 km
Semi-major axis
7,063.132 km
Eccentricity
0.00555
Inclination
74.0401°
RAAN
319.1451°
Arg. of periapsis
336.454°
True anomaly
81.39181°
Mean anomaly
80.7634°
Eccentric anomaly
81.07754°
Mean motion
3.65635 °/min
Orbital period
98.46 mins
BSTAR
0.00040918
Loading maneuver chart data...
Computing Atmospheric mass density...

Documentation

Showing up to 5 results
|